Regional Weather Roundup
Issued by NWS

Home | Current Version | Previous Version | Text Only | Print | Product List | Glossary Off
Versions: 1 2 3 4 5 6 7 8 9 10 11 12 13 14 15 16 17 18 19 20 21 22 23 24 25 26 27 28 29 30 31 32 33 34 35 36 37 38 39 40 41 42 43 44 45 46 47 48 49 50

721
ASUS43 KDTX 170310
RWRMI
MICHIGAN HOURLY REGIONAL WEATHER ROUNDUP
NATIONAL WEATHER SERVICE DETROIT/PONTIAC MI
1000 PM EST MON JAN 16 2017

NOTE: "FAIR" INDICATES FEW OR NO CLOUDS BELOW 12,000 FEET WITH NO
SIGNIFICANT WEATHER AND/OR OBSTRUCTION TO VISIBILITY.

MIZ047>049-052>055-059>063-066>070-074>076-081>083-170400-
SOUTHEAST LOWER MICHIGAN

CITY           SKY/WX    TMP DP  RH WIND       PRES   REMARKS
ADRIAN         MIX PCPN  32  32 100 E9        30.11F FOG     WCI  24
ALMA           LGT RAIN  32  32  98 E7        30.12F WCI  26
ANN ARBOR      MIX PCPN  32  32 100 E8        30.13F FOG     WCI  25
BAD AXE        FLURRIES  31  29  90 E3        30.17F
CARO           MIX PCPN  32  31  96 SE6       30.15F WCI  26
DETROIT CITY   FRZ RAIN  30  28  93 E9          N/A  WCI  22
DETROIT        CLOUDY    33  31  92 E9        30.15F FOG     WCI  25
FLINT          LGT RAIN  32  31  96 SE8       30.14F FOG     WCI  25
GROSSE ILE     CLOUDY    32  31  95 E12       30.13F WCI  23
HILLSDALE      MIX PCPN  32  32 100 E10       30.06F WCI  24
HOWELL         MIX PCPN  32  31  95 E8        30.10F WCI  25

CITY           SKY/WX    TMP DP  RH WIND       PRES   REMARKS
JACKSON        FRZ RAIN  33  31  92 E10       30.08F FOG     WCI  25
LAMBERTVILLE   MIX PCPN  34  32  93 E5        30.12F WCI  30
LANSING        LGT RAIN  33  30  88 SE10      30.10F FOG     WCI  25
LAPEER         NOT AVBL
MASON          LGT RAIN  32  32  99 SE7       30.10F WCI  26
MONROE         LGT SNOW  33  32  96 E6        30.14S WCI  27
MT. CLEMENS    FRZ RAIN  32  30  93 E10       30.16F WCI  23
PONTIAC        FRZ RAIN  31  28  89 E7        30.13F FOG     WCI  24
PORT HOPE        N/A     32  29  88 SE6       30.18F WCI  26
PORT HURON     MIX PCPN  32  30  93 SE5       30.20S WCI  27
TRI CITIES     FRZ RAIN  32  32 100 SE5       30.15F FOG     WCI  27
MIDLAND        MIX PCPN  32  31  94 E3        30.14F
TROY           MIX PCPN  32  29  90 E8        30.18F WCI  25
SAGINAW HB     MIX PCPN  32  30  93 SE3       30.15F
$$
MIZ043>046-050>051-056>058-064>065-071>073-077>080-170400-
SOUTHWEST LOWER MICHIGAN

CITY           SKY/WX    TMP DP  RH WIND       PRES   REMARKS
BATTLE CREEK   LGT RAIN  34  34 100 VRB3      30.05F FOG
BENTON HARBOR  CLOUDY    38  35  89 E10       29.99F FOG     WCI  31
BIG RAPIDS     LGT SNOW  32  31  96 E6        30.07F WCI  26
COLDWATER      LGT RAIN  35  35 100 E12       30.05F WCI  26
FREMONT        MIX PCPN  33  33  99 SE6       30.06S WCI  28
HOLLAND        RAIN      34  33  96 E13       30.03F FOG     WCI  25
GRAND RAPIDS   LGT RAIN  33  31  92 E13       30.06F FOG     WCI  24
IONIA          LGT SNOW  32  32  99 E10       30.08S WCI  24
KALAMAZOO      LGT RAIN  36  33  89 E5        30.04F FOG     WCI  32
LUDINGTON      LGT SNOW  32  32 100 E6        30.06F WCI  27
MARSHALL       LGT RAIN  34  34  99 E8        30.06F WCI  27
MOUNT PLEASANT MIX PCPN  32  31  96 E6        30.12F WCI  26
MUSKEGON       LGT RAIN  35  33  92 E9        30.04F FOG     WCI  28
SOUTH HAVEN    RAIN      36  35  98 E8        30.00F WCI  30
$$
MIZ016>042-170400-
NORTHERN LOWER MICHIGAN

CITY           SKY/WX    TMP DP  RH WIND       PRES   REMARKS
ALPENA         CLOUDY    23  17  78 S3        30.16F
BEAVER ISLAND  CLOUDY    27  25  93 CALM      30.12F
BELLAIRE       PTCLDY    23  22  96 CALM      30.12F
CADILLAC       MIX PCPN  31  29  93 E7        30.07F WCI  24
CHARLEVOIX     PTCLDY    29  24  82 E5        30.14F WCI  24
FRANKFORT      LGT RAIN  33  31  93 CALM      30.09F
GAYLORD        CLOUDY    29  19  66 CALM      30.10F
GRAYLING       CLOUDY    30  23  75 E7        30.12F WCI  23
HARBOR SPRINGS CLOUDY    27  24  89 NE5       30.13F WCI  21
HOUGHTON LAKE  MIX PCPN  30  25  81 E6        30.12F WCI  24
MANISTEE       MIX PCPN  32  30  92 E9        30.07F FOG     WCI  24
OSCODA         CLOUDY    31  23  72 CALM      30.17F
PELLSTON       CLOUDY    24  21  88 CALM      30.14F
ROGERS CITY    CLOUDY    25  20  82 CALM      30.15F
TRAVERSE CITY  MOCLDY    35  22  58 VRB3      30.10F
$$
MIZ007>008-015-170400-
EASTERN UPPER MICHIGAN

CITY           SKY/WX    TMP DP  RH WIND       PRES   REMARKS
KINROSS        PTCLDY    21  20  96 E6        30.13F WCI  13
MACKINAC ISLAN CLOUDY    27  23  85 SE5       30.13F WCI  22
NEWBERRY       CLOUDY    21  21  97 CALM      30.11F
S. S. MARIE    CLOUDY    25  20  81 E5        30.14S WCI  19
$$
MIZ004>006-011>014-085-170400-
CENTRAL UPPER MICHIGAN

CITY           SKY/WX    TMP DP  RH WIND       PRES   REMARKS
MANISTIQUE     CLOUDY    21  20  97 CALM      30.11F
ESCANABA       PTCLDY    22  20  92 CALM      30.11F FOG
SAWYER-GWINN   CLEAR     23  19  86 CALM      30.07F
$$
MIZ001>003-009>011-084-170400-
WESTERN UPPER MICHIGAN

CITY           SKY/WX    TMP DP  RH WIND       PRES   REMARKS
IRON MOUNTAIN  CLOUDY    22  16  78 CALM      30.05F
HOUGHTON       CLOUDY    28  23  81 E3        30.05F
COPPER HARBOR    N/A     25  24  96 SW5       30.08F WCI  19
IRONWOOD       CLOUDY    24  20  84 CALM      30.03F
$$

ABBREVIATIONS USED IN REMARKS
   TC - TEMPERATURE IN CELSIUS
  WCI - WIND CHILL INDEX
   HX - HEAT INDEX
  VSB - VISIBILITY





USA.gov is the U.S. government's official web portal to all federal, state and local government web resources and services.